[[{"header":{"parameterUnit":"m.s-1","parameterCategory":1,"la1":30.2991,"la2":30.254,"lo1":-89.0895,"lo2":-89.0444,"dy":0.0017,"dx":0.0017,"nx":28,"ny":28,"refTime":"2025-12-14T03:00:00:Z","depth":0,"parameterNumber":2,"parameterNumberName":"U-component_of_WINDS"},"data":[0,0,0,0,0,0,0,0,0,0,0,0,0,0,0,0,0,0,0,0,0,0,0,0,0,0,0,0,0,0,0,0,0,0,0,0,0,0,0,0,0,0,0,0,0,0,0,0,0,0,0,0,0,0,0,0,0,0,-1.8372,-1.8373,0,-1.8469,-1.847,-1.8471,-1.8457,-1.8456,-1.8454,-1.8452,-1.8551,-1.8555,-1.8559,0,0,0,0,0,0,0,0,0,0,0,0,0,-1.8173,-1.8177,-1.8372,-1.8373,-1.8375,-1.8469,-1.847,-1.8472,-1.8457,-1.8455,-1.8454,-1.8452,-1.8549,-1.8554,-1.8559,0,0,0,0,0,0,0,0,0,0,0,0,0,-1.8264,-1.8178,-1.8372,-1.8379,-1.838,-1.8469,-1.847,-1.8472,-1.8458,-1.8455,-1.8453,-1.8451,-1.8548,-1.8554,-1.856,-1.8647,0,0,-1.8579,-1.8581,0,0,0,0,0,0,0,0,-1.8259,-1.8271,-1.8377,-1.8379,-1.8381,-1.8449,-1.8436,-1.8531,-1.8459,-1.8428,-1.8452,-1.845,-1.8519,-1.8527,-1.855,-1.8651,-1.8656,-1.8579,-1.8583,-1.8586,-1.8587,0,0,0,0,0,0,0,-1.8252,-1.8267,-1.841,-1.8378,-1.8381,-1.8377,-1.8387,-1.8454,-1.8486,-1.8431,-1.843,-1.8442,-1.8519,-1.8545,-1.8553,-1.8657,-1.8579,-1.8585,-1.8588,-1.8591,-1.8833,-1.8836,0,0,0,0,0,0,-1.8244,-1.8262,-1.8407,-1.8413,-1.8312,-1.8382,-1.8394,-1.8429,-1.8485,-1.8491,-1.8444,-1.8441,-1.8535,-1.8545,-1.8556,-1.8661,-1.8586,-1.8591,-1.8595,-1.883,-1.8834,-1.8837,0,0,0,0,0,0,-1.824,-1.8258,-1.8403,-1.8337,-1.8356,-1.8388,-1.8428,-1.8432,-1.8458,-1.8495,-1.85,-1.8464,-1.8534,-1.8547,-1.8624,-1.8664,-1.8594,-1.86,-1.8827,-1.8831,-1.8835,-1.8871,0,0,0,0,0,0,-1.8235,-1.8256,-1.829,-1.8338,-1.8359,-1.847,-1.8431,-1.8436,-1.8469,-1.8466,-1.8515,-1.8521,-1.8533,-1.8615,-1.863,-1.8671,-1.8605,-1.8824,-1.8829,-1.8834,-1.8866,-1.8876,-1.8884,0,0,0,0,0,-1.8227,-1.8296,-1.8292,-1.8309,-1.8402,-1.8473,-1.8485,-1.8497,-1.8472,-1.8506,-1.853,-1.852,-1.8657,-1.8623,-1.864,-1.8683,-1.8821,-1.8828,-1.8833,-1.8862,-1.8874,-1.8884,0,0,0,0,0,0,-1.8251,-1.8303,-1.8298,-1.8385,-1.8425,-1.847,-1.8513,-1.8509,-1.8556,-1.8551,-1.8564,-1.8576,-1.8653,-1.8676,-1.8637,-1.877,-1.8736,-1.8746,-1.8752,-1.8763,-1.8772,-1.8764,-1.861,0,0,0,0,0,-1.8267,-1.832,-1.8362,-1.8434,-1.8454,-1.8481,-1.8512,-1.8518,-1.8559,-1.8576,-1.8605,-1.8646,-1.8698,-1.8732,-1.8782,-1.887,-1.888,-1.8908,-1.8917,-1.8924,-1.8932,-1.8979,-1.8991,-1.8857,-1.8857,-1.8857,0,0,-1.8299,-1.8333,-1.8366,-1.844,-1.8471,-1.8526,-1.8495,-1.8554,-1.8594,-1.8585,-1.8659,-1.8682,-1.8728,-1.881,-1.8848,-1.8832,-1.8971,-1.8932,-1.8937,-1.8941,-1.8986,-1.8999,-1.901,-1.8861,-1.886,-1.8859,0,0,-1.8385,-1.8417,-1.848,-1.8512,-1.8561,-1.8577,-1.8593,-1.8639,-1.8654,-1.8729,-1.8723,-1.8771,-1.8861,-1.8893,-1.8922,-1.902,-1.9012,-1.9036,-1.9081,-1.9126,-1.9137,-1.9146,-1.918,-1.9192,-1.9044,-1.9044,-1.9044,0,-1.8418,-1.85,-1.8513,-1.8573,-1.8604,-1.8599,-1.8662,-1.8693,-1.8755,-1.8777,-1.8758,-1.8871,-1.8901,-1.8991,-1.9014,-1.9038,-1.9055,-1.903,-1.9135,-1.9144,-1.9153,-1.9185,-1.9198,-1.9047,-1.9046,-1.9046,-1.9046,0,-1.8539,-1.8596,-1.8641,-1.8701,-1.8738,-1.8799,-1.882,-1.8856,-1.8859,-1.8878,-1.8953,-1.899,-1.9047,-1.9069,-1.9073,-1.9159,-1.9147,-1.9132,-1.9097,-1.9168,-1.9198,-1.9211,-1.905,-1.9049,-1.9048,-1.9048,0,0,-1.8642,-1.8708,-1.8724,-1.875,-1.8803,-1.8847,-1.8908,-1.8964,-1.8994,-1.9037,-1.9087,-1.9164,-1.915,-1.9182,-1.9189,-1.9229,-1.9303,-1.9208,-1.921,-1.9223,-1.9398,-1.9408,-1.9423,-1.9299,-1.9301,-1.9303,-1.9394,0,-1.8731,-1.8839,-1.8851,-1.8947,-1.8999,-1.8994,-1.9047,-1.9085,-1.9104,-1.9151,-1.9172,-1.9225,-1.9203,-1.9222,-1.9262,-1.9285,-1.9338,-1.9279,-1.9344,-1.9346,-1.9331,-1.9439,-1.945,-1.9534,-1.9406,-1.9408,-1.941,0,-1.885,-1.8896,-1.8997,-1.9041,-1.9064,-1.9111,-1.9163,-1.9208,-1.925,-1.9261,-1.9297,-1.9299,-1.9361,-1.9325,-1.941,-1.937,-1.9398,-1.9413,-1.9417,-1.9422,-1.9381,-1.9445,-1.9561,-1.9573,-1.9429,-1.9427,-1.9426,0,-1.8913,-1.9001,-1.9072,-1.9095,-1.9149,-1.9182,-1.9206,-1.9246,-1.9279,-1.9324,-1.9345,-1.9398,-1.9426,-1.9466,-1.9481,-1.9454,-1.9565,-1.9531,-1.9575,-1.9575,-1.9597,-1.9595,-1.9718,-1.9618,-1.9618,-1.9617,-1.9617,0,-1.9011,-1.9072,-1.91,-1.9144,-1.9212,-1.9226,-1.9293,-1.9316,-1.9352,-1.9399,-1.9399,-1.9443,-1.9462,-1.9509,-1.9522,-1.959,-1.9603,-1.9613,-1.9615,-1.9612,-1.961,-1.9629,-1.9623,-1.9621,-1.962,-1.9619,-1.9619,0,-1.9092,-1.9114,-1.9191,-1.9236,-1.9249,-1.9297,-1.9335,-1.9377,-1.9396,-1.9455,-1.947,-1.95,-1.9555,-1.9575,-1.9643,-1.9651,-1.9729,-1.9728,-1.9715,-1.9715,-1.9757,-1.9752,-1.9894,-1.9913,-1.9802,-1.9803,-1.9804,0,-1.9153,-1.92,-1.925,-1.9281,-1.9307,-1.9358,-1.9391,-1.9407,-1.9441,-1.9493,-1.9528,-1.9584,-1.9628,-1.9717,-1.9744,-1.9796,-1.9794,-1.9841,-1.9802,-1.9797,-1.9793,-1.979,-1.9794,-1.9847,-1.9848,-1.9849,-1.985,0,-1.9257,-1.9265,-1.9313,-1.9365,-1.9404,-1.9445,-1.9486,-1.9511,-1.9533,-1.9572,-1.9629,-1.9663,-1.9732,-1.9787,-1.9839,-1.9864,-1.986,-1.9862,-1.9875,-1.9871,-1.9861,-1.9866,-1.9733,-1.9858,-1.9858,-1.9857,-1.9857,-1.9856,-1.9329,-1.937,-1.9411,-1.9464,-1.9496,-1.9533,-1.9574,-1.9598,-1.9646,-1.9703,-1.971,-1.977,-1.9811,-1.9881,-1.9908,-1.9955,-1.9943,-1.9961,-1.9966,-1.997,-1.9972,-1.9855,-1.9965,-1.9965,-1.9965,-1.9965,-1.9965,0,-1.9432,-1.9458,-1.9507,-1.9563,-1.9604,-1.9598,-1.9642,-1.9677,-1.973,-1.9769,-1.9813,-1.9877,-1.993,-1.9961,-2.0014,-2.0046,-2.0046,-2.0059,-2.0056,-2.0062,-1.9981,-1.9964,-2.0058,-2.0058,-2.0058,-2.0058,-2.0058,-2.0058,-1.949,-1.9558,-1.9572,-1.9655,-1.9681,-1.9741,-1.9766,-1.98,-1.9831,-1.9903,-1.9947,-1.9967,-2.0003,-2.0058,-2.0106,-2.0113,-2.0132,-2.0147,-2.0153,-2.0077,-2.0067,-2.0058,-2.0042,-2.0151,-2.0151,-2.0229,-2.023,-2.023]},{"header":{"parameterUnit":"m.s-1","parameterCategory":1,"la1":30.2991,"la2":30.254,"lo1":-89.0895,"lo2":-89.0444,"dy":0.0017,"dx":0.0017,"nx":28,"ny":28,"refTime":"2025-12-14T03:00:00:Z","depth":0,"parameterNumber":3,"parameterNumberName":"V-component_of_WINDS"},"data":[0,0,0,0,0,0,0,0,0,0,0,0,0,0,0,0,0,0,0,0,0,0,0,0,0,0,0,0,0,0,0,0,0,0,0,0,0,0,0,0,0,0,0,0,0,0,0,0,0,0,0,0,0,0,0,0,0,0,-0.2794,-0.2794,0,-0.2808,-0.2808,-0.2808,-0.2824,-0.2825,-0.2825,-0.2825,-0.2841,-0.2841,-0.2841,0,0,0,0,0,0,0,0,0,0,0,0,0,-0.2782,-0.2782,-0.2794,-0.2794,-0.2794,-0.2808,-0.2808,-0.2808,-0.2824,-0.2825,-0.2825,-0.2825,-0.2841,-0.2841,-0.2841,0,0,0,0,0,0,0,0,0,0,0,0,0,-0.2791,-0.2782,-0.2794,-0.2804,-0.2805,-0.2808,-0.2808,-0.2808,-0.2824,-0.2825,-0.2825,-0.2825,-0.2841,-0.2841,-0.2841,-0.2836,0,0,-0.2842,-0.2842,0,0,0,0,0,0,0,0,-0.279,-0.2791,-0.2802,-0.2803,-0.2804,-0.2815,-0.281,-0.2818,-0.2824,-0.2817,-0.2825,-0.2825,-0.2832,-0.2833,-0.2835,-0.2837,-0.2838,-0.2842,-0.2842,-0.2843,-0.2843,0,0,0,0,0,0,0,-0.279,-0.2791,-0.28,-0.2802,-0.2804,-0.2808,-0.281,-0.2811,-0.2822,-0.2818,-0.2819,-0.282,-0.2833,-0.2835,-0.2835,-0.2838,-0.2842,-0.2843,-0.2843,-0.2843,-0.2835,-0.2835,0,0,0,0,0,0,-0.2787,-0.279,-0.2799,-0.28,-0.2798,-0.2808,-0.281,-0.2811,-0.2822,-0.2824,-0.282,-0.2821,-0.2834,-0.2835,-0.2836,-0.283,-0.2843,-0.2843,-0.2843,-0.2836,-0.2835,-0.2835,0,0,0,0,0,0,-0.2787,-0.2788,-0.2798,-0.2795,-0.2797,-0.2808,-0.2809,-0.2811,-0.2813,-0.2824,-0.2826,-0.282,-0.2834,-0.2836,-0.2836,-0.2831,-0.2843,-0.2843,-0.2836,-0.2836,-0.2835,-0.2819,0,0,0,0,0,0,-0.2787,-0.2788,-0.2786,-0.2795,-0.2797,-0.2798,-0.2809,-0.2811,-0.2813,-0.2815,-0.2824,-0.2826,-0.2835,-0.2835,-0.2836,-0.2832,-0.2844,-0.2837,-0.2836,-0.2835,-0.282,-0.2818,-0.2816,0,0,0,0,0,-0.2786,-0.2781,-0.2785,-0.2787,-0.2795,-0.2797,-0.2798,-0.2807,-0.2813,-0.2811,-0.2818,-0.2826,-0.2831,-0.2835,-0.2836,-0.2832,-0.2837,-0.2836,-0.2835,-0.2821,-0.2818,-0.2816,0,0,0,0,0,0,-0.2772,-0.2782,-0.2788,-0.2785,-0.279,-0.28,-0.2798,-0.2805,-0.2808,-0.281,-0.2821,-0.2823,-0.2822,-0.2827,-0.2831,-0.2827,-0.2835,-0.2835,-0.2824,-0.2821,-0.282,-0.2818,-0.2844,0,0,0,0,0,-0.2768,-0.2769,-0.2778,-0.2776,-0.2778,-0.2787,-0.2789,-0.2795,-0.2801,-0.2803,-0.281,-0.2816,-0.2819,-0.282,-0.2824,-0.282,-0.2823,-0.2818,-0.2816,-0.2814,-0.2814,-0.2812,-0.281,-0.2832,-0.2832,-0.2832,0,0,-0.2761,-0.2767,-0.2767,-0.2773,-0.2777,-0.2778,-0.2789,-0.279,-0.279,-0.2804,-0.2804,-0.2809,-0.2816,-0.2814,-0.2814,-0.2818,-0.2808,-0.2813,-0.2812,-0.2812,-0.2811,-0.2809,-0.2807,-0.2831,-0.2832,-0.2832,0,0,-0.2748,-0.2753,-0.2751,-0.2755,-0.2761,-0.2767,-0.2767,-0.2775,-0.2779,-0.2779,-0.2789,-0.279,-0.2795,-0.2799,-0.2802,-0.279,-0.2798,-0.2791,-0.2781,-0.2779,-0.2777,-0.2776,-0.2771,-0.2769,-0.279,-0.279,-0.279,0,-0.2739,-0.274,-0.2749,-0.2748,-0.2751,-0.2762,-0.276,-0.2763,-0.2771,-0.2772,-0.2777,-0.2782,-0.2788,-0.2787,-0.2784,-0.2786,-0.2786,-0.279,-0.2777,-0.2775,-0.2774,-0.277,-0.2768,-0.2789,-0.2789,-0.2789,-0.2789,0,-0.2728,-0.2728,-0.2726,-0.2732,-0.2734,-0.2732,-0.2741,-0.2742,-0.2748,-0.2754,-0.2754,-0.2761,-0.2765,-0.2765,-0.2772,-0.2765,-0.2768,-0.2774,-0.2783,-0.2771,-0.2767,-0.2765,-0.2788,-0.2788,-0.2788,-0.2789,0,0,-0.2707,-0.2717,-0.2716,-0.2718,-0.2726,-0.2727,-0.2726,-0.273,-0.273,-0.2734,-0.2734,-0.2737,-0.2743,-0.2746,-0.2753,-0.2751,-0.2741,-0.2758,-0.2758,-0.2754,-0.2734,-0.2728,-0.2726,-0.2746,-0.2745,-0.2745,-0.2733,0,-0.2695,-0.2694,-0.2702,-0.2698,-0.2699,-0.2709,-0.2708,-0.2713,-0.2718,-0.272,-0.2726,-0.2727,-0.2735,-0.2737,-0.2736,-0.2742,-0.2737,-0.2743,-0.2745,-0.2745,-0.2743,-0.2725,-0.2719,-0.2708,-0.2731,-0.2731,-0.2731,0,-0.2682,-0.2685,-0.2681,-0.2688,-0.2689,-0.2688,-0.2692,-0.2693,-0.2698,-0.2702,-0.2705,-0.2712,-0.2712,-0.272,-0.272,-0.2724,-0.2725,-0.2728,-0.2728,-0.2729,-0.2738,-0.2725,-0.2704,-0.2702,-0.2729,-0.2729,-0.2729,0,-0.2666,-0.267,-0.2668,-0.267,-0.2678,-0.2677,-0.268,-0.2686,-0.2687,-0.2691,-0.2692,-0.2695,-0.2697,-0.27,-0.2708,-0.2713,-0.2706,-0.2715,-0.271,-0.2709,-0.2708,-0.2708,-0.2687,-0.2709,-0.2709,-0.2709,-0.2709,0,-0.2653,-0.265,-0.2661,-0.266,-0.2657,-0.2666,-0.2663,-0.2668,-0.2672,-0.2673,-0.2682,-0.2682,-0.2692,-0.2693,-0.27,-0.2698,-0.2699,-0.2702,-0.2704,-0.2701,-0.2701,-0.2703,-0.2704,-0.2708,-0.2708,-0.2709,-0.2709,0,-0.2635,-0.2642,-0.2641,-0.2649,-0.265,-0.2648,-0.2655,-0.2654,-0.2659,-0.2659,-0.266,-0.2668,-0.267,-0.2678,-0.2682,-0.2686,-0.2683,-0.2686,-0.2681,-0.2682,-0.2676,-0.2676,-0.2655,-0.2653,-0.2676,-0.2676,-0.2675,0,-0.2626,-0.2624,-0.2631,-0.2632,-0.2635,-0.2635,-0.2637,-0.2645,-0.2646,-0.2652,-0.265,-0.2652,-0.2655,-0.2657,-0.2664,-0.2666,-0.267,-0.2662,-0.2671,-0.2668,-0.267,-0.267,-0.2669,-0.2661,-0.2661,-0.266,-0.266,0,-0.2609,-0.2612,-0.2614,-0.2616,-0.2617,-0.262,-0.2623,-0.2623,-0.2632,-0.2633,-0.2634,-0.2636,-0.2639,-0.2641,-0.2645,-0.2649,-0.2656,-0.2657,-0.2656,-0.2654,-0.2651,-0.2652,-0.2676,-0.2658,-0.2658,-0.2658,-0.2658,-0.2659,-0.2595,-0.2594,-0.2599,-0.26,-0.2603,-0.2605,-0.2605,-0.261,-0.2611,-0.2614,-0.2619,-0.262,-0.2624,-0.263,-0.2633,-0.2634,-0.2638,-0.2636,-0.2636,-0.2635,-0.2634,-0.265,-0.2635,-0.2635,-0.2635,-0.2635,-0.2635,0,-0.2579,-0.2582,-0.2583,-0.2586,-0.2587,-0.2593,-0.2597,-0.2597,-0.2597,-0.2601,-0.2603,-0.2604,-0.2606,-0.2612,-0.2615,-0.2614,-0.2617,-0.2614,-0.2615,-0.2615,-0.263,-0.2631,-0.2612,-0.2612,-0.2612,-0.2612,-0.2612,-0.2612,-0.257,-0.2568,-0.2572,-0.2571,-0.2574,-0.2575,-0.2576,-0.2578,-0.2581,-0.2582,-0.2583,-0.2588,-0.2592,-0.2595,-0.2597,-0.2599,-0.2599,-0.2595,-0.2598,-0.2612,-0.2614,-0.2616,-0.2617,-0.2595,-0.2595,-0.2583,-0.2583,-0.2583]}]]